Flag for Australia Weather past 2 weeks in Kalgoorlie, Western Australia, Australia

Now
81 °F

Clear.


Feels Like: 80 °F
Forecast: 65 / 84 °F
Wind: 15 mph from East

Location: Kalgoorlie Boulder Amo

Current Time: Oct 22, 2014 at 8:51:51 PM

Latest Report: Oct 22, 2014 at 8:00 PM


Visibility: N/A

Pressure: 29.89 "Hg

Humidity: 30%

Dew point: 46 °F

Location of KalgoorlieLocation

Historic Weather in Kalgoorlie — Graph

°F

Kalgoorlie temperature yesterday

Maximum temperature yesterday: 81 °F (at 2:30 PM)
Minimum temperature yesterday: 54 °F (at 3:00 AM)
Average temperature yesterday: 66 °F

Past Weeks' High & Low Weather Summary

 TemperatureHumidityPressure
High99 °F (Oct 16, 12:30 PM)100% (Oct 19, 12:00 AM)30.30 "Hg (Oct 19, 12:00 AM)
Low46 °F (Oct 13, 4:30 AM)4% (Oct 8, 3:00 PM)29.77 "Hg (Oct 16, 2:00 PM)
Average70 °F42%30.03 "Hg
* Reported Oct 7 7:00 PM — Oct 22 7:30 PM, Kalgoorlie, Weather by CustomWeather, © 2014

Note: Actual official high and low records may vary slightly from our data, if they occured in-between our weather recording intervals... More about our weather records

Advertising

Kalgoorlie weather history for previous 24 hours

 ConditionsComfort  
Time TempWeatherWind HumidityBarometerVisibility
7:30 PM
Oct 22
82 °FClear.14 mph28%29.92 "HgN/A
7:00 PM82 °FPassing clouds.13 mph26%29.92 "HgN/A
6:30 PM82 °FClear.13 mph28%29.92 "HgN/A
6:00 PM84 °FClear.15 mph25%29.92 "HgN/A
5:30 PM84 °FClear.14 mph27%29.92 "HgN/A
5:00 PM84 °FSunny.12 mph29%29.92 "HgN/A
4:30 PM86 °FSunny.15 mph25%29.95 "HgN/A
4:00 PM86 °FSunny.15 mph25%29.95 "HgN/A
3:30 PM86 °FSunny.15 mph27%29.95 "HgN/A
3:00 PM86 °FSunny.14 mph27%29.98 "Hg10 mi
2:30 PM84 °FSunny.13 mph29%29.98 "Hg10 mi
2:00 PM84 °FSunny.13 mph27%30.01 "Hg10 mi
1:30 PM82 °FSunny.12 mph35%30.01 "Hg10 mi
1:00 PM82 °FSunny.12 mph35%30.04 "Hg10 mi
12:30 PM81 °FSunny.13 mph37%30.04 "Hg10 mi
12:00 PM79 °FSunny.13 mph42%30.07 "Hg10 mi
11:30 AM79 °FSunny.10 mph42%30.07 "Hg10 mi
11:00 AM77 °FSunny.13 mph44%30.09 "Hg10 mi
10:30 AM75 °FSunny.10 mph47%30.12 "Hg10 mi
10:00 AM73 °FSunny.10 mph50%30.12 "Hg10 mi
9:30 AM72 °FSunny.12 mph50%30.15 "Hg10 mi
9:00 AM70 °FSunny.13 mph57%30.15 "Hg10 mi
8:30 AM68 °FSunny.13 mph56%30.15 "Hg10 mi
8:00 AM66 °FSunny.13 mph64%30.15 "Hg10 mi
7:30 AM64 °FSunny.12 mph64%30.15 "Hg10 mi
7:00 AM63 °FSunny.13 mph68%30.15 "Hg10 mi
6:30 AM61 °FSunny.13 mph72%30.15 "Hg10 mi
6:00 AM59 °FSunny.13 mph77%30.15 "Hg10 mi
5:30 AM59 °FSunny.13 mph77%30.15 "HgN/A
5:00 AM59 °FSunny.13 mph82%30.12 "HgN/A
4:30 AM59 °FScattered clouds.14 mph82%30.12 "HgN/A
4:00 AM59 °FPassing clouds.16 mph82%30.12 "HgN/A
3:30 AM61 °FClear.15 mph77%30.12 "HgN/A
3:00 AM61 °FClear.15 mph77%30.12 "HgN/A
2:30 AM63 °FClear.15 mph73%30.12 "HgN/A
2:00 AM63 °FClear.13 mph73%30.15 "HgN/A
1:30 AM63 °FClear.14 mph73%30.15 "HgN/A
1:00 AM64 °FClear.14 mph68%30.15 "HgN/A
12:30 AM64 °FClear.12 mph68%30.15 "HgN/A
12:00 AM63 °FClear.9 mph73%30.15 "HgN/A
11:30 PM
Oct 21
64 °FClear.7 mph68%30.15 "HgN/A
11:00 PM64 °FClear.9 mph64%30.15 "HgN/A
10:30 PM64 °FClear.7 mph64%30.18 "HgN/A
10:00 PM66 °FClear.6 mph60%30.18 "HgN/A
9:30 PM66 °FClear.7 mph64%30.18 "HgN/A
9:00 PM66 °FClear.9 mph64%30.18 "HgN/A
8:30 PM68 °FClear.10 mph56%30.18 "HgN/A
8:00 PM68 °FClear.8 mph60%30.15 "HgN/A
Weather by CustomWeather, © 2014

See weather overviewHow to use our weather pages